DELTA 1 DEB, 14471

Orbit data source: Space-Track

DELTA 1 DEB, 14471 is space debris in SSO originally from a launch on Thu, 29 Jul 1976 UTC launched from the Air Force Western Test Range (AFWTR). Debris objects in space refer to the collection of defunct objects orbiting the Earth. Examples of debris include non-operational satellites, rocket bodies, and fragments generated from explosions, collisions, or faulty payload assembly.

Loading next visibility...
Identifier
14471, 1976-077EN
Orbit
SSO
Country
Flag of USUS
Related business
Manufacturer
Unknown
Mission
Spacecraft
Bus & Motor
Unknown
Mass
Unknown
Launch date (UTC)
1976-07-29 (50 years ago)
Launch vehicle
Unknown
Launch site
Air Force Western Test Range (AFWTR)
Object type
Payload
Rocket body
Debris
Shape & HBR
Unknown shape, 0.1 m
Radar Cross Section
Medium (>0.1 m² and <1 m²)

Expand to show TLE details & history
Last TLE update: 1 day ago

TLE from 1 day ago
0 DELTA 1 DEB
1 14471U 76077EN  26255.43397846  .00000048  00000-0  80741-3 0  9993
2 14471 102.4649 227.4454 0130323  79.4137  71.0982 12.25634023949913
Epoch: 2026-09-12T10:24Z
TLE epoch observation values (Epoch: 2026-09-12T10:24:55.738Z)
Latitude
27.38926°
Longitude
-93.68556°
Altitude
1,538.764 km
Speed
7.114 km/s
True Right ascension
03h 35m 57s
True Declination
27° 15' 46"
Sunlit
Object was in daylight at epoch
Visualization orbit readout
Latitude
Unknown
Longitude
Unknown
Altitude
Unknown
Speed
Unknown
Apparent Right ascension
Unknown
Apparent Declination
Unknown
Sunlit
N/A
Visualization observer readout
Local Sidereal Time
03:55:02
Azimuth
Unknown
Elevation
Unknown
Doppler factor
Unknown
Orbital elements
Apogee altitude
1,669.244 km
Perigee altitude
1,462.19 km
Semi-major axis
7,943.854 km
Eccentricity
0.01303
Inclination
102.4649°
RAAN
227.4454°
Arg. of periapsis
79.4137°
True anomaly
72.51841°
Mean anomaly
71.0982°
Eccentric anomaly
71.80757°
Mean motion
3.06546 °/min
Orbital period
117.44 mins
BSTAR
0.00080741
Loading maneuver chart data...
Computing Atmospheric mass density...
Loading historical data...
Loading historical data...
Loading historical data...
Loading historical data...
Loading historical data...
Loading historical data...
Loading historical data...

Documentation

Showing up to 5 results
|